Regional Weather Roundup
Issued by NWS

Home | Current Version | Previous Version | Graphics & Text | Print | Product List | Glossary On
Versions: 1 2 3 4 5 6 7 8 9 10 11 12 13 14 15 16 17 18 19 20 21 22 23 24 25 26 27 28 29 30 31 32 33 34 35 36 37 38 39 40 41 42 43 44 45 46 47 48 49 50
000
ASUS45 KPSR 250910
RWRAZ

ARIZONA HOURLY REGIONAL WEATHER ROUNDUP
NATIONAL WEATHER SERVICE PHOENIX AZ
200 AM MST SAT MAR 25 2017

NOTE: FAIR INDICATES FEW OR NO CLOUDS BELOW 12,000 FEET WITH NO
SIGNIFICANT WEATHER AND/OR OBSTRUCTIONS TO VISIBILITY.

AZZ001>003-036-251000-
NORTHWEST ARIZONA

CITY           SKY/WX    TMP DP  RH WIND       PRES   REMARKS
BULLHEAD CITY  MOCLDY    64  28  25 S7        30.00F
KINGMAN        PTCLDY    51  18  27 SE13      30.08F
$$

AZZ004>008-015-016-018-251000-
NORTH CENTRAL ARIZONA

CITY           SKY/WX    TMP DP  RH WIND       PRES   REMARKS
GRAND CANYON   CLEAR     30  28  92 NE5       30.20F WCI  25
WILLIAMS       CLEAR     37  28  70 S6        30.19F WCI  33
PRESCOTT       CLEAR     44  30  57 S7        30.16F
FLAGSTAFF      PTCLDY    29  27  92 SW3       30.20F
PAYSON         CLEAR     41  32  70 CALM      30.20F
PAGE           PTCLDY    49  31  49 NW3       30.08F
$$

AZZ009>014-017-251000-
NORTHEAST ARIZONA

CITY           SKY/WX    TMP DP  RH WIND       PRES   REMARKS
WINSLOW        CLEAR     38  27  64 E6        30.14F WCI  33
SAINT JOHNS    CLEAR     36  21  54 S7        30.19F WCI  30
WINDOW ROCK    CLEAR     28  22  78 CALM      30.21F
SHOW LOW       CLEAR     32  25  74 S7        30.22S WCI  26
$$

AZZ023-251000-
GREATER PHOENIX AREA

CITY           SKY/WX    TMP DP  RH WIND       PRES   REMARKS
PHOENIX        PTCLDY    61  39  44 E7        30.04F
BUCKEYE        CLEAR     52  36  54 N3        30.04F
LUKE AFB       CLEAR     55  42  61 N3        30.03F
DEER VALLEY    CLEAR     60  38  43 NE8       30.05F
SCOTTSDALE     CLEAR     56  42  59 CALM      30.06F
MESA-GATEWAY   CLEAR     54  41  62 SE7       30.06F
$$

AZZ027-028-251000-
SOUTHWEST MARICOPA COUNTY AND PINAL COUNTY

CITY           SKY/WX    TMP DP  RH WIND       PRES   REMARKS
CASA GRANDE    NOT AVBL
GILA BEND      FAIR      61  24  24 SW8       30.03F
$$

AZZ503-504-507>509-251000-
SOUTHEAST ARIZONA

CITY           SKY/WX    TMP DP  RH WIND       PRES   REMARKS
TUCSON         CLEAR     53  22  29 SE9       30.12F
DAVIS-MONTHAN  CLEAR     48  23  36 SE7       30.11F
NOGALES        CLEAR     43  17  35 CALM      30.13F
SIERRA VISTA   CLEAR     45  16  31 S5        30.17F
DOUGLAS        CLEAR     40  21  46 NE5       30.15F
SAFFORD        CLEAR     46  31  55 CALM      30.11F
$$

AZZ020-021-025-026-031-251000-
SOUTHWEST ARIZONA

CITY           SKY/WX    TMP DP  RH WIND       PRES   REMARKS
YUMA           CLEAR     64  42  44 CALM      30.01F
$$

CAZ031-033-041-043-047-048-061-251000-
SOUTHERN CALIFORNIA

CITY           SKY/WX    TMP DP  RH WIND       PRES   REMARKS
DOWNTOWN L.A.  CLOUDY    59  52  77 VRB6      30.12F
L.A. AIRPORT   CLOUDY    58  52  80 NE9       30.13F
SAN DIEGO      CLOUDY    59  51  75 CALM      30.18F
BURBANK        CLOUDY    56  47  71 E5        30.12F
ONTARIO        CLOUDY    53  45  74 CALM      30.15F
RIVERSIDE      CLOUDY    54  47  77 CALM      30.17F
PALM SPRINGS   CLOUDY    66  44  45 CALM      30.04F
EL CENTRO NAS  MOCLDY    65  37  35 W5        30.03F
IMPERIAL       MOCLDY    63  41  44 W5        30.01F
BLYTHE         MOCLDY    64  35  34 CALM      30.01F
NEEDLES        MOCLDY    67  28  23 W5        30.00F
$$

NVZ020-UTZ003-251000-
SOUTHERN NEVADA-UTAH

CITY           SKY/WX    TMP DP  RH WIND       PRES   REMARKS
LAS VEGAS      CLOUDY    66  28  24 S7        29.97F
SALT LAKE CITY CLOUDY    54  33  45 SW7       30.01R
$$

NMZ009-TXZ055-251000-
NEW MEXICO-WEST TEXAS

CITY           SKY/WX    TMP DP  RH WIND       PRES   REMARKS
ALBUQUERQUE    CLOUDY    43  18  36 S5        30.17F
EL PASO        CLEAR     56  21  25 CALM      30.10S
$$


........................KEY........................
SKY/WX - SKY CONDITION/WEATHER
TMP    - TEMPERATURE IN FAHRENHEIT
DP     - DEW POINT IN FAHRENHEIT
RH     - RELATIVE HUMIDITY IN PERCENT
WIND   - DIRECTION AND SPEED IN MILES PER HOUR (MPH)
VRB    - VARIABLE WIND DIRECTION
PRES   - MEAN SEA LEVEL PRESSURE IN INCHES OF MERCURY
         F - FALLING PRESSURE   R - RISING PRESSURE
         S - STEADY PRESSURE
VSB    - VISIBILITY IN MILES
HX     - HEAT INDEX IN FAHRENHEIT
WCI    - WIND CHILL INDEX IN FAHRENHEIT
TC     - TEMPERATURE IN CELSIUS WHICH IS ALSO KNOWN AS
         TEMPERATURE IN CENTIGRADE
AFB    - AIR FORCE BASE
         LUKE AFB IS LUKE AIR FORCE BASE
         DAVIS-MONTHAN IS DAVIS-MONTHAN AIR FORCE BASE
NAS    - NAVAL AIR STATION
         EL CENTRO NAS IS EL CENTRO NAVAL AIR STATION
N/A    - NOT AVAILABLE




USA.gov is the U.S. government's official web portal to all federal, state and local government web resources and services.